Location: B?jaj?g
(11.7167°N, 92.6667°E)
Time: 12:58:06
(UTC+00:00)

Cosmos 1271 Rocket - Pass Details

Date: 18 September 2020
Orbit: 498 x 545 km, 81.2° (Epoch: 25 October)

Event Time Altitude Azimuth Distance (km) Brightness Sun altitude
Rises 12:13:43 0° 354° (N) 2,695 6.5 -7.1°
Reaches altitude 10° 12:15:52 10° 354° (N) 1,799 5.6 -7.6°
Maximum altitude 12:19:50 89° 272° (W) 541 2.8 -8.6°
Drops below altitude 10° 12:23:46 10° 175° (S) 1,779 5.3 -9.6°
Sets 12:25:54 0° 175° (S) 2,661 6.2 -10.1°
